sat.trackr.live / text

‹ back to catalog

IRNSS-1A

NORAD 39199 · 2013-034A

PAYLOAD ACTIVE UNKNOWN

§ Identity

Operator
Country
IND
Launch date
2013-07-01
Launch site
SRILR
Launch vehicle
Mass (kg)
RCS (m²)
3.48

Purposes: comms, nav

External: N2YO · Heavens-Above · Gunter

§ Orbital elements

Epoch: 2026-09-10T23:39:18.667872Z

Period
1,436.06 min
Inclination
35.9094°
Eccentricity
0.0019988
Mean motion
1.00274175 rev/d
Perigee alt
35,701.6 km
Apogee alt
35,870.2 km
Semi-major
42,164.1 km
B*
0.0000e+0
RAAN
62.6436°
Arg perigee
178.1079°
Mean anomaly
159.1335°
Rev number
4,822

§ Raw data

IRNSS-1A1 39199U 13034A   26253.98563273  .00000076  00000+0  00000+0 0  99942 39199  35.9094  62.6436 0019988 178.1079 159.1335  1.00274175 48228

JSON: /api/v1/satellites/39199 · /tle

For live sub-satellite position, see the globe view (requires WebGL).

§ Visibility from observer

Set your observer location to see the next 7 days of passes ≥ 10°. The values pass through the URL so the page stays shareable.

No JS? Fill the form by hand. The geolocation button needs JavaScript.